Zurück zum Katalog

STARLINK-11460

AktivKommunikationVLEO
NORAD 62069·PAYLOAD·🇺🇸 United States

Gestartet Nov 24, 2024 von Vandenberg Space Force Base

Loading…

Nächste Überflüge (nächste 24 Stunden)

TLE

AktuellSource: CelesTrak SupGP

Epoche: Sep 15, 2026, 03:15 UTC

1 62069C 24217N   26258.13590278 -.00092554  00000+0 -76221-3 0  2582
2 62069  53.1574 217.6525 0001197  90.0716 287.1464 15.69761683    14

Verfolge STARLINK-11460 in Echtzeit mit AllMySat

Download on the App Store